Location: Tel Aviv
(32.0670°N, 34.7670°E)
Time: 00:59:08
(UTC+02:00)

Transit 4A - Pass Details

Date: 12 December 2023
Orbit: 869 x 974 km, 66.8° (Epoch: 23 February)

Event Time Altitude Azimuth Distance (km) Brightness Sun altitude
Rises 17:30:27 0° 203° (SSW) 3,649 11.7 -11.2°
Reaches altitude 10° 17:33:00 10° 203° (SSW) 2,708 11.0 -11.7°
Maximum altitude 17:39:22 89° 114° (ESE) 976 8.0 -13.0°
Drops below altitude 10° 17:45:44 10° 26° (NNE) 2,702 9.9 -14.2°
Enters shadow 17:46:19 - 26° (NNE) 2,921 10.1 -14.4°
